Dewpoint
53 53 53 53 53 53 52 52 52 52 52 52 51 51 51 52 52 52 52 52 52 52 52 53 53 53 54 44 34 35 60 59 55 53 40 34 28 30 28 24 25 26 27 25 27 27 26
53 52 52 52 52 51 51 51 51 51 51 51 51 51 50 51 51 51 51 51 52 52 52 53 54 54 50 33 34 48 52 55 50 49 37 32 29 28 28 24 22 24 24 23 24 26 24
52 52 52 51 51 51 50 50 49 50 51 50 50 50 50 50 50 51 51 51 52 52 54 54 54 52 46 38 33 42 51 53 48 46 36 34 31 29 28 25 26 24 23 24 23 25 24
51 51 51 50 50 50 50 50 49 49 49 50 50 49 49 49 50 51 52 52 52 53 54 54 54 50 41 39 40 34 47 49 48 41 39 37 33 31 29 27 25 24 22 20 23 23 23
50 50 50 50 49 49 49 49 49 49 49 49 48 49 48 49 50 51 52 53 53 53 55 54 51 47 36 41 30 35 41 42 36 35 37 31 35 32 29 26 23 24 19 20 20 22 24
50 50 50 49 49 49 49 49 48 49 48 49 49 48 48 48 50 50 52 52 53 50 53 48 41 41 38 30 36 35 36 37 35 36 37 34 32 27 24 24 19 20 19 17 17 19 24
49 49 50 49 49 49 50 49 49 49 49 49 49 49 50 50 50 51 49 40 32 40 33 34 34 34 33 34 37 36 34 34 34 33 30 31 28 23 23 23 22 21 19 16 17 19 23
50 50 50 50 50 50 50 50 50 50 49 49 49 51 50 51 50 50 45 36 39 40 37 37 36 34 35 36 34 33 34 30 31 29 29 26 24 24 24 23 22 19 17 17 20 20 20
49 49 49 49 49 49 49 49 50 50 49 49 50 51 51 50 50 45 38 38 43 43 37 33 36 34 34 35 33 32 34 32 29 28 27 25 25 26 25 24 21 19 18 19 19 20 20
48 49 48 49 49 49 49 49 50 49 49 50 49 50 50 50 43 40 35 39 43 44 31 28 30 33 33 35 32 33 33 31 28 25 25 24 24 23 23 21 20 18 21 21 20 19 17
49 50 49 48 48 48 47 48 48 48 51 51 49 49 50 49 41 36 38 41 43 43 21 28 30 35 34 30 30 32 34 33 27 25 26 24 24 25 23 22 22 21 24 22 22 20 22
49 47 48 46 47 47 47 48 48 47 50 50 48 48 49 43 39 39 41 43 43 33 22 27 29 30 29 31 30 32 32 34 32 28 26 25 26 24 24 23 24 24 22 21 19 19 18
47 46 47 47 46 47 46 46 46 47 47 49 48 48 47 43 36 42 45 42 31 20 20 22 24 25 24 26 28 28 29 28 25 25 23 25 25 26 24 22 24 23 19 19 17 18 15
46 47 46 46 46 45 46 45 45 46 46 47 48 48 43 35 43 44 43 35 18 14 18 24 24 21 18 17 16 19 27 26 27 25 24 23 20 25 26 22 21 21 19 19 14 15 15
46 45 46 45 45 45 45 45 46 46 48 48 48 39 37 43 44 44 38 26 19 21 23 24 23 14 10 15 18 19 17 17 20 21 22 21 19 21 25 24 22 22 19 18 16 16 16
45 45 45 45 44 44 45 45 45 45 47 47 41 36 38 40 43 41 31 22 21 24 24 23 19 20 23 22 17 20 22 20 27 31 28 23 22 27 21 26 25 23 23 20 20 17 14
45 44 45 45 45 46 46 46 46 45 45 46 39 33 38 39 39 32 27 22 24 23 22 21 20 17 17 19 23 22 19 21 26 29 33 27 24 24 23 23 21 22 20 21 20 20 13
44 45 45 46 46 46 46 47 46 46 45 40 40 27 37 39 28 32 28 22 26 22 23 22 20 21 19 18 18 18 18 23 25 31 28 32 30 24 24 27 29 28 25 25 21 18 16
44 45 45 46 47 47 46 46 46 45 44 41 35 34 39 38 26 23 24 24 28 20 20 21 21 23 22 20 18 19 22 26 25 30 28 30 24 17 12 15 26 28 30 30 31 30 23
45 46 46 46 46 46 46 46 46 45 44 41 35 27 30 33 30 24 24 22 21 23 22 21 21 22 23 22 22 20 20 21 24 22 26 29 27 22 17 19 22 23 24 28 26 24 25
44 44 44 44 44 44 45 46 45 44 44 42 36 31 33 25 24 26 24 23 21 18 20 22 23 24 23 23 23 20 20 23 23 25 24 26 22 21 21 23 22 21 24 25 24 23 23
42 42 43 43 44 45 45 45 45 44 44 40 34 31 32 28 27 22 23 21 18 19 22 22 24 26 29 24 24 22 27 22 22 22 21 25 17 20 21 21 18 20 19 18 20 14 20
44 44 44 44 44 44 44 44 44 44 44 39 40 38 33 26 24 23 22 21 22 24 25 25 26 26 24 24 28 28 28 28 27 26 24 25 20 20 15 16 18 15 13 16 10 10 13
43 43 43 42 42 42 43 43 43 43 43 42 37 38 32 24 24 23 23 25 25 26 26 27 27 25 27 31 31 27 28 27 28 27 26 22 21 22 17 12 -2 11 10 11 6 7 10
43 43 43 44 44 45 45 45 44 43 42 42 41 37 33 25 25 24 25 26 27 25 26 25 26 30 33 29 21 15 14 17 22 27 27 28 23 19 12 7 11 5 2 2 2 2 7
42 41 41 42 43 41 41 41 42 42 43 42 40 40 36 30 25 27 28 27 24 24 23 23 30 32 30 25 18 8 12 14 15 22 26 26 24 19 11 3 -2 -4 -1 9 8 -4 6
42 42 42 43 42 40 40 41 41 40 40 41 41 41 38 31 31 33 28 27 30 25 23 23 22 22 31 22 16 13 15 20 17 11 12 17 9 10 9 10 -7 -3 2 6 1 -5 5
41 41 41 40 42 41 40 40 40 40 40 41 39 42 39 32 32 32 30 28 25 25 20 19 20 25 20 20 20 19 15 21 10 4 3 -3 -5 -5 -2 -3 -8 -0 -2 -7 0 5 6
41 41 42 42 42 41 39 39 40 39 39 41 40 41 42 36 32 32 31 31 30 28 24 20 22 23 25 22 18 17 14 11 15 3 -1 -6 -5 -8 -7 -8 -1 2 1 5 5 3 5
Lifted_Index
13 13 13 13 13 13 13 13 13 13 13 13 13 14 14 14 14 14 14 14 13 13 13 12 12 11 10 9 10 10 8 7 7 8 9 10 10 10 9 9 10 9 9 9 9 9 9
13 13 13 13 13 14 14 14 14 14 14 14 14 14 14 14 14 14 14 14 14 13 13 12 12 11 10 10 11 10 8 7 7 9 10 11 11 11 10 10 10 10 9 9 9 9 9
13 14 14 14 14 15 15 15 15 15 14 14 14 15 15 15 15 15 15 14 14 14 13 12 12 12 11 11 12 11 9 7 8 9 11 12 12 11 11 11 10 10 10 9 9 8 9
14 14 15 15 15 15 15 16 16 15 15 15 15 15 15 15 15 15 15 14 14 13 12 12 12 11 12 12 13 13 10 9 10 11 11 12 12 12 11 11 10 9 8 7 7 8 8
15 15 15 16 16 16 16 16 16 16 16 16 16 16 16 16 15 15 15 14 14 13 12 11 11 11 12 13 14 13 12 11 12 12 12 12 12 12 11 10 8 7 6 6 7 8 8
15 15 16 16 16 16 16 16 16 17 17 16 16 16 16 16 16 15 15 14 13 13 12 11 11 11 12 12 13 14 13 13 13 13 13 12 12 11 11 9 7 6 6 7 7 8 8
15 15 16 16 16 16 16 16 16 17 17 17 17 17 17 17 16 16 15 15 14 13 12 12 12 12 12 13 13 13 13 13 13 12 11 11 10 9 9 9 8 7 7 8 8 8 8
15 16 16 16 16 16 16 16 16 17 17 18 17 17 17 17 17 16 16 16 16 15 13 12 12 13 13 13 13 13 13 12 12 10 10 10 9 9 9 9 8 8 7 7 7 7 7
16 16 16 16 16 16 16 16 16 17 17 18 18 18 18 17 17 17 17 17 17 16 13 11 12 13 13 13 12 12 12 12 11 9 9 9 9 9 9 8 7 7 6 6 6 6 6
16 16 16 16 16 17 17 17 17 17 17 18 18 18 18 18 18 18 18 18 17 14 11 10 11 12 13 12 11 12 12 11 10 9 8 8 8 8 8 7 6 6 6 6 6 6 5
16 16 16 17 17 17 17 17 17 18 18 18 18 18 18 18 19 19 18 18 16 12 8 9 11 12 12 11 10 10 11 10 9 8 8 8 8 7 7 6 6 6 6 6 6 5 4
16 17 17 17 17 18 18 18 18 18 18 18 18 18 18 18 19 18 18 16 14 9 7 9 11 12 11 10 9 9 9 9 8 7 7 7 7 7 7 6 6 6 6 5 5 4 3
17 17 17 17 18 18 18 18 19 19 19 18 18 18 18 18 18 17 16 14 10 8 9 10 11 11 11 10 9 8 7 7 6 5 5 6 6 6 6 6 6 5 5 3 2 2 1
17 17 17 18 18 18 18 19 19 19 19 19 18 18 18 17 17 16 15 11 8 9 11 12 12 11 11 10 9 8 7 6 5 4 4 4 5 5 5 5 5 4 4 2 1 0 1
18 18 18 18 18 18 19 19 19 19 19 19 19 18 18 17 16 16 14 11 10 11 13 13 12 12 11 11 9 8 7 6 5 3 2 2 3 4 3 3 4 4 3 3 1 1 0
18 18 18 18 18 18 19 19 19 19 19 19 19 18 18 17 16 16 14 12 12 13 13 13 12 11 11 10 8 6 5 4 3 2 1 1 2 2 2 2 2 2 2 2 1 1 -0
18 18 17 17 18 18 18 19 19 19 19 19 18 18 17 17 16 16 15 14 14 13 12 11 10 8 7 6 5 4 3 3 2 1 1 1 1 1 1 0 1 1 0 0 0 -0 -0
17 17 17 17 17 18 18 18 18 18 18 18 18 17 17 17 16 15 14 13 13 11 10 8 6 4 3 3 2 2 2 1 1 1 1 1 1 0 0 0 0 0 0 -0 -0 -0 -0
17 17 17 17 17 17 17 17 17 17 18 18 17 17 17 16 15 14 13 12 10 9 7 5 3 1 1 1 1 1 1 1 1 1 1 1 1 1 1 1 1 1 1 1 0 -0 -0
17 17 17 17 17 17 17 17 17 17 17 17 17 17 16 15 14 12 11 10 8 6 4 2 1 0 -0 -0 -0 0 0 0 1 1 1 1 1 1 1 1 2 2 2 1 1 1 1
17 17 17 17 17 17 17 16 16 16 16 16 16 15 14 12 11 10 8 7 7 5 3 1 0 0 -0 -0 0 0 0 0 1 1 1 1 1 1 1 1 2 2 2 2 2 1 1
17 18 17 17 17 17 16 16 15 15 15 15 14 13 11 9 8 7 6 6 5 4 2 1 0 -0 -0 0 0 0 0 1 1 1 1 1 1 1 1 1 1 1 2 2 2 2 2
17 17 17 17 17 16 16 15 15 14 13 12 11 10 9 7 6 5 4 4 3 2 1 1 0 0 0 0 1 1 1 1 1 1 1 1 1 1 1 1 1 1 1 2 2 2 2
17 17 17 16 16 15 15 14 14 13 11 10 8 7 7 6 5 4 3 3 2 1 1 0 0 0 0 1 1 1 1 1 1 1 1 1 1 1 0 0 1 1 1 1 1 2 2
16 16 16 15 15 15 14 14 12 11 9 7 6 5 5 5 4 3 3 2 2 2 1 1 1 1 1 1 1 1 1 0 0 1 1 1 1 0 0 0 1 1 2 3 2 2 3
16 15 15 15 15 15 14 13 11 9 7 5 4 4 4 4 3 3 3 2 2 2 2 2 1 1 1 1 1 1 1 0 0 0 1 1 1 1 0 0 1 2 4 5 3 3 5
15 15 15 15 15 14 14 12 10 8 6 5 3 3 3 3 3 3 3 3 3 3 2 2 2 2 2 1 1 1 0 0 0 1 1 1 1 1 1 1 1 3 5 5 4 6 8
15 15 15 14 14 13 12 10 9 7 6 4 3 2 2 2 2 3 3 3 3 3 3 3 2 2 2 2 1 1 1 1 1 1 1 1 1 1 1 2 4 7 8 7 8 10 12
15 15 14 14 13 12 11 9 8 7 6 4 3 2 2 2 2 2 3 3 4 4 3 3 3 3 3 2 2 2 1 1 1 1 1 1 1 1 1 3 7 10 11 11 13 14 14